Wind_Speed
38 37 37 36 36 35 34 33 32 31 30 29 28 27 26 26 25 25 24 24 24 24 24 24 24 23 23 23 23 23 23 23 22 21 21 20 19 18 18 17 16 15 15 14 13 13 12 12 11 11 10 9 9 9 9 8 9 9 10 10 11 12 12 12 12 13 13 13 13 13 13 12 11 11 12 13 13 14 14 14 15 15 14 14 14 14 14 15
39 38 37 37 36 36 35 34 33 32 31 30 29 28 27 27 26 25 25 25 25 25 25 25 25 25 25 25 25 25 24 24 23 22 21 20 20 19 18 17 16 15 14 14 13 13 12 12 11 11 10 9 9 9 9 9 10 10 11 11 12 13 13 13 13 13 14 13 14 14 13 12 12 12 13 14 14 15 15 15 16 16 15 15 15 16 17 18
39 39 38 37 37 36 36 35 34 33 32 31 31 29 29 28 27 27 26 26 26 26 26 26 26 26 26 26 26 26 25 25 24 23 22 21 20 19 18 17 16 15 14 14 13 13 12 12 12 11 10 9 9 9 9 10 10 11 11 12 12 13 13 13 13 13 13 13 13 13 14 13 13 13 14 15 15 15 16 16 17 16 16 17 17 18 19 20
40 39 39 38 38 37 36 36 35 35 34 33 32 31 30 29 28 28 27 27 27 27 27 27 27 27 27 28 27 27 27 26 25 24 23 23 21 20 19 17 16 15 15 14 14 13 13 13 12 11 10 10 9 9 9 10 10 11 11 12 12 13 13 13 13 13 13 13 13 13 14 14 14 14 15 16 16 16 16 17 17 17 17 18 19 20 21 21
41 40 40 39 38 38 37 37 36 36 35 35 34 33 32 31 30 29 29 28 28 28 28 28 28 28 29 29 29 28 28 27 26 25 25 24 22 21 19 18 17 16 16 15 15 14 14 13 12 12 11 10 10 10 9 10 10 11 11 12 12 12 12 12 12 12 13 13 12 13 14 15 15 16 16 17 17 17 17 18 18 18 19 20 21 22 22 22
43 42 41 40 39 39 38 37 37 37 37 36 36 35 34 33 31 30 30 30 29 29 29 29 29 30 30 31 30 30 29 29 27 27 26 25 24 22 20 19 18 18 17 16 16 16 15 14 13 13 12 12 11 11 10 11 11 11 12 12 12 12 12 12 12 12 13 13 13 14 15 16 17 17 18 18 19 18 18 18 18 19 20 21 22 23 23 23
45 44 43 42 41 40 39 39 38 38 38 38 37 36 36 35 33 32 31 31 31 30 30 30 31 31 32 32 32 32 31 30 29 28 28 27 25 24 22 21 20 20 19 18 18 17 16 15 15 14 14 13 13 13 12 12 12 12 12 13 13 12 12 13 13 13 13 14 15 15 16 17 17 18 20 20 20 19 19 19 19 20 21 22 23 24 24 24
47 46 44 43 42 41 41 40 40 39 39 39 39 38 37 36 35 34 33 32 32 31 31 31 32 33 33 34 34 33 33 32 30 30 29 28 27 26 24 23 22 22 21 20 19 18 17 17 16 16 16 15 15 15 14 14 13 13 13 13 13 13 13 14 15 15 15 16 17 17 18 17 18 19 20 21 21 20 20 20 20 21 22 23 24 25 25 25
49 47 46 45 44 43 42 42 41 41 41 40 40 40 39 38 37 36 35 34 33 33 32 32 33 33 35 35 35 35 34 33 32 31 31 30 29 28 27 26 25 24 23 22 21 20 19 18 18 18 18 17 17 16 16 16 15 15 15 15 15 15 15 15 16 16 16 17 18 18 19 19 19 19 20 22 22 20 21 21 22 22 23 23 24 24 25 25
51 49 48 47 46 44 44 43 43 42 42 42 42 42 41 40 39 38 37 36 35 34 34 33 33 34 35 36 37 37 36 35 34 33 32 32 31 30 29 28 27 26 25 24 22 22 21 20 20 19 19 18 18 18 17 17 16 17 17 16 16 16 16 17 17 17 17 18 18 19 20 19 19 19 21 23 22 21 22 23 23 23 24 24 23 23 24 24
53 52 50 49 47 46 45 45 44 43 43 43 43 43 43 42 41 40 38 37 36 35 35 35 34 35 36 37 38 38 37 36 36 35 34 33 33 32 30 29 28 27 26 25 24 23 22 21 21 20 20 19 19 19 19 19 18 19 18 18 18 18 18 18 19 19 19 19 19 20 20 20 20 20 22 24 23 22 23 23 24 23 24 24 23 23 23 23
54 53 52 51 49 48 47 46 45 45 44 44 44 44 44 43 42 41 40 39 38 37 37 36 36 36 37 38 39 40 39 38 38 37 36 35 34 33 32 31 30 29 28 27 26 25 24 23 22 21 20 20 20 20 20 20 20 20 20 20 20 20 20 20 21 21 21 21 21 22 21 19 21 22 23 24 23 24 24 24 24 24 24 23 23 23 23 23
55 54 53 52 51 50 48 48 47 46 45 45 45 45 44 44 43 42 41 41 40 39 39 38 38 38 39 39 41 42 41 40 39 38 38 37 36 34 33 32 31 30 29 28 27 26 25 24 23 22 22 22 21 21 21 21 21 21 22 22 23 23 22 22 23 23 23 23 23 25 23 19 22 24 23 24 25 25 25 24 24 23 24 24 24 24 24 24
56 55 54 53 52 51 50 49 48 48 47 47 46 46 45 45 45 44 43 43 42 42 41 41 40 40 40 41 42 43 43 42 41 40 40 39 38 36 35 34 33 32 31 30 29 28 27 26 25 24 23 23 23 23 22 22 22 23 23 24 25 25 24 24 25 24 24 25 24 27 26 21 24 27 25 25 26 26 25 25 24 24 24 25 25 25 25 25
56 56 55 54 53 52 51 51 50 49 49 48 48 47 47 47 46 46 45 45 44 43 43 43 42 42 42 42 43 45 45 44 43 42 41 40 39 38 37 36 35 34 32 32 30 29 29 28 27 26 25 25 24 24 24 24 23 24 25 26 27 27 26 26 26 26 25 26 26 28 28 24 25 28 27 27 27 27 27 25 24 24 25 25 25 25 25 26
56 56 55 54 54 53 52 52 51 50 50 50 49 49 49 48 48 47 47 46 46 45 45 45 44 44 44 43 44 46 46 46 45 44 43 42 41 40 39 38 37 36 35 34 33 32 31 30 29 28 27 26 26 25 25 25 25 26 28 28 27 27 28 27 27 27 27 28 29 29 30 27 26 28 29 29 29 29 28 26 26 25 25 24 24 25 25 26
55 55 55 55 54 54 53 52 52 51 51 51 51 50 50 50 49 49 48 47 47 47 47 47 46 46 46 45 44 46 47 47 47 46 45 44 44 42 41 40 39 38 37 36 35 34 32 32 31 30 29 28 27 27 27 27 27 28 29 28 28 28 28 28 28 29 29 30 31 31 31 29 29 30 31 30 31 30 28 27 27 26 25 25 25 26 26 27
54 54 54 54 54 53 53 53 52 51 51 51 51 51 51 50 50 50 49 49 48 48 48 48 47 47 47 45 44 45 47 48 48 48 48 46 45 44 43 42 41 40 39 38 37 36 35 34 33 32 31 29 28 28 29 29 29 29 29 29 29 29 29 29 29 30 31 32 33 34 33 31 31 32 32 32 32 31 29 28 28 26 26 26 26 27 28 29
52 53 53 53 53 52 52 52 52 52 52 51 51 51 50 50 50 50 50 50 49 49 49 48 48 48 47 46 45 46 47 49 50 50 49 48 47 46 45 44 43 42 41 40 38 37 37 36 35 34 31 30 31 31 32 32 31 30 30 31 31 30 30 30 30 31 33 34 35 36 36 34 33 33 33 34 34 32 30 29 28 27 28 27 28 29 30 31
52 52 52 52 52 51 51 51 51 51 52 52 51 51 51 50 50 50 49 49 49 49 49 49 48 48 47 47 47 48 49 50 51 51 51 50 49 48 47 46 45 44 42 41 40 39 39 38 36 34 32 32 33 33 33 33 32 32 32 32 32 32 32 31 32 34 35 37 37 37 38 37 35 34 34 35 35 32 30 29 29 28 28 28 29 30 31 32
53 52 52 51 51 51 51 51 51 50 51 51 51 51 51 50 50 49 49 49 49 49 49 49 49 49 48 48 48 48 50 51 52 52 52 51 51 50 49 47 46 45 44 43 43 42 41 40 37 35 34 35 35 35 35 34 34 34 34 34 34 34 33 33 34 36 38 40 39 39 40 39 38 37 35 36 35 32 30 30 29 28 29 29 31 32 32 33
54 53 53 52 51 51 51 51 50 50 50 50 50 50 50 49 49 49 49 49 49 49 49 49 49 49 48 48 48 49 50 51 52 52 52 52 52 51 50 49 48 47 46 46 45 43 42 40 38 37 37 37 37 37 36 36 36 36 36 36 36 35 35 35 36 38 40 42 42 42 44 42 40 40 38 36 35 33 32 32 30 28 29 30 31 32 33 33
55 54 54 53 52 52 51 51 51 50 49 49 49 49 49 48 48 49 49 49 49 49 49 49 49 48 48 48 48 49 50 50 51 52 53 53 52 52 52 50 50 49 49 48 46 45 43 41 39 39 39 38 38 38 38 38 38 37 37 37 37 36 37 38 38 40 42 44 45 46 47 46 43 42 39 37 35 33 32 31 30 28 29 31 32 32 33 34
57 56 55 54 53 53 52 52 51 50 49 49 48 48 49 48 48 48 49 50 50 49 49 49 49 49 48 49 49 49 50 51 52 53 53 53 53 53 53 51 51 51 50 49 47 46 44 43 42 41 40 39 39 38 39 39 40 39 39 39 39 39 40 41 42 43 43 45 47 48 51 50 44 42 40 36 35 33 31 30 29 28 29 31 32 33 34 35
61 59 58 56 55 54 54 53 51 50 50 49 49 49 49 48 48 48 49 52 52 50 49 50 49 49 48 49 49 49 51 51 51 52 53 53 53 53 53 53 53 52 50 49 48 47 45 44 43 42 40 40 40 40 41 42 41 41 40 40 41 41 42 43 44 45 46 47 48 49 53 52 45 43 39 35 34 33 32 30 28 28 30 32 33 34 36 37
64 63 61 59 58 56 56 54 52 51 51 50 50 50 50 50 49 49 50 53 54 51 49 50 50 49 49 49 50 50 51 51 51 52 52 53 53 53 53 53 53 52 50 48 47 48 47 45 43 42 41 41 42 42 42 42 42 42 42 41 42 43 43 44 45 47 49 50 50 51 54 54 47 42 38 35 34 33 31 29 28 29 31 32 34 35 37 38
65 65 64 62 60 59 58 56 54 53 52 52 53 52 52 51 51 51 50 54 56 52 48 50 51 50 49 49 50 51 52 51 50 52 52 52 53 53 53 53 52 50 48 47 48 49 48 45 43 43 44 44 44 43 43 43 44 44 44 43 43 44 44 45 47 49 51 52 54 54 54 55 48 39 36 35 34 32 29 27 27 29 31 33 35 37 38 39
66 66 65 65 63 62 61 59 57 55 54 54 55 55 54 53 53 52 52 56 58 53 50 50 51 52 51 51 51 52 54 52 51 52 52 52 53 53 53 52 51 49 48 48 50 50 49 47 46 45 46 46 44 43 43 44 45 45 45 45 45 45 46 47 49 51 53 55 57 56 54 54 47 38 37 36 33 31 27 25 27 29 31 33 35 38 39 40
68 67 66 65 65 65 64 63 60 58 57 57 57 57 57 56 56 55 55 58 58 55 53 51 51 53 53 53 53 53 54 54 54 53 52 53 53 53 53 52 51 50 49 50 50 50 50 49 48 47 46 45 44 44 45 45 46 46 46 46 46 47 47 49 51 52 55 57 59 56 53 53 47 39 38 37 34 33 30 28 29 31 33 35 37 40 41 41
68 67 67 66 65 65 65 64 63 61 60 59 59 59 59 59 58 57 59 60 58 57 56 53 52 53 54 54 54 55 55 55 55 54 53 53 53 53 53 52 52 52 51 51 51 51 52 50 49 48 46 45 45 46 46 46 47 46 46 47 48 49 50 51 53 54 57 59 59 55 52 53 49 41 38 39 39 39 36 35 35 35 37 39 40 42 42 42
67 67 67 66 65 65 64 64 64 64 63 62 61 61 61 60 59 60 62 60 57 60 60 55 53 53 54 54 55 55 56 56 56 55 55 54 54 54 53 53 52 52 52 52 51 52 52 50 49 48 47 47 47 47 47 47 47 46 47 48 49 52 53 55 56 56 59 60 58 54 52 53 52 45 42 43 44 44 42 40 40 40 41 42 43 43 42 41
64 65 66 66 66 65 64 65 67 67 65 64 64 64 63 63 64 66 64 59 59 64 63 59 56 55 55 56 56 56 57 58 58 58 57 56 55 55 54 53 52 52 53 53 52 52 51 51 50 50 50 49 48 48 47 47 47 47 48 49 51 54 56 58 59 59 59 59 56 54 53 54 53 48 46 46 45 46 45 43 42 42 43 44 44 44 42 39
61 62 63 65 66 65 65 66 69 70 69 68 67 67 67 68 70 69 66 63 64 66 64 62 61 60 59 59 58 58 57 58 58 59 59 59 58 57 56 56 55 55 56 55 53 53 52 52 52 52 51 50 49 48 48 47 48 49 51 53 54 56 59 60 60 59 58 57 54 53 55 56 52 48 47 46 45 46 46 44 43 43 44 44 43 41 39 36
60 63 63 62 63 65 65 66 69 70 70 70 70 71 72 74 71 68 66 67 68 67 65 65 66 64 62 61 60 60 59 59 59 59 60 60 60 60 59 58 57 56 55 55 54 54 54 54 53 52 51 50 50 49 49 49 50 53 55 56 58 59 59 58 58 57 58 58 56 56 57 56 52 49 49 48 45 44 43 43 44 44 44 42 40 38 35 33
55 59 61 61 60 60 62 65 70 72 72 71 71 73 76 75 70 66 65 66 67 67 66 68 71 69 66 64 63 62 61 61 60 60 61 61 61 60 59 58 56 55 54 54 55 55 55 55 54 52 52 52 52 52 53 53 55 57 58 60 61 59 55 53 56 58 59 60 59 59 58 54 52 50 50 49 45 42 41 42 43 44 43 41 39 36 34 32
52 52 55 59 59 57 58 60 63 68 73 74 74 76 75 71 66 64 65 64 65 66 66 69 72 71 69 67 65 64 63 63 63 63 62 62 61 60 59 57 57 56 55 55 55 56 56 56 54 54 54 54 55 56 57 58 59 61 62 62 60 55 52 54 57 59 61 62 61 59 56 54 52 48 45 46 45 41 41 42 43 44 42 40 38 35 33 31
53 53 53 55 58 59 59 58 56 57 64 71 76 76 72 67 64 63 64 63 63 63 64 67 70 70 69 67 65 64 64 64 65 65 64 64 64 61 60 59 59 58 57 56 56 56 56 56 56 57 57 57 58 59 60 61 62 63 63 60 56 55 56 57 59 61 62 63 62 58 56 53 50 44 40 43 43 40 40 42 43 42 40 37 35 33 31 30
51 51 52 51 53 55 56 58 58 55 57 63 69 70 68 64 61 62 64 63 62 63 63 64 66 67 67 67 65 64 63 64 64 64 65 66 66 63 62 62 61 60 59 57 57 57 56 57 57 58 58 59 59 60 62 63 64 63 61 59 57 58 60 59 60 61 62 64 62 58 55 49 44 41 41 43 43 40 39 41 41 39 37 35 32 30 29 29
50 49 50 49 50 51 53 54 55 55 56 58 59 60 60 59 58 63 67 65 64 65 64 63 63 65 66 66 65 64 64 63 62 62 63 64 63 61 61 62 62 61 61 60 59 57 55 55 58 59 59 60 61 62 63 63 62 61 60 60 60 61 62 62 62 62 62 64 63 58 53 44 39 42 44 44 44 42 38 38 38 36 34 32 30 29 29 30
53 52 50 48 48 50 50 51 52 54 56 57 54 49 48 52 58 63 65 65 66 67 66 63 63 64 65 65 65 65 64 63 62 62 62 62 61 60 59 60 60 60 61 60 58 56 56 57 60 60 61 63 64 63 63 61 60 60 61 62 63 63 64 63 63 63 62 63 62 59 53 42 39 44 45 45 47 43 36 34 35 34 31 30 29 29 30 31
57 57 55 52 52 53 52 53 56 56 57 60 57 48 44 48 55 60 62 64 67 68 67 66 65 65 64 64 64 64 64 64 63 63 62 61 60 59 58 58 58 58 58 59 58 57 57 58 59 60 61 63 63 62 61 62 63 63 64 65 65 64 64 63 64 64 63 60 58 58 54 44 40 44 45 46 49 44 37 34 33 31 30 30 30 30 31 31
59 58 59 58 58 59 57 57 57 58 59 60 57 53 51 49 50 55 60 63 66 67 68 68 67 67 66 65 64 64 64 64 64 63 62 61 60 59 58 58 58 58 58 59 58 57 57 57 57 59 62 62 62 61 62 63 64 65 66 67 66 65 64 63 63 61 59 58 55 57 57 46 39 43 45 46 48 44 39 35 31 30 31 31 31 32 32 31
61 58 59 61 63 63 63 62 58 58 60 59 56 56 56 54 52 53 56 59 62 64 66 67 66 66 66 65 66 67 67 66 66 64 62 60 59 58 59 59 59 59 59 59 59 58 59 60 60 61 62 61 61 62 62 62 63 65 66 65 64 63 61 60 59 58 57 58 55 57 59 49 42 46 47 46 47 45 40 34 30 30 31 32 32 32 32 31
63 61 60 61 64 65 66 65 62 60 60 59 59 59 57 57 58 56 54 56 58 60 63 65 65 64 64 64 66 67 68 68 68 66 63 62 59 57 58 59 59 59 60 60 60 60 60 60 58 59 60 61 61 62 63 64 64 63 62 61 60 59 58 57 57 56 57 56 54 57 59 52 46 48 48 48 49 46 40 34 30 29 29 31 32 32 33 33
63 63 63 63 64 66 67 67 65 64 62 60 61 62 59 59 59 58 56 57 57 58 60 62 62 62 62 62 63 65 66 67 68 67 66 64 61 59 60 61 61 61 61 61 62 63 62 60 58 58 61 63 63 63 63 62 61 60 60 60 59 56 55 54 53 53 55 55 55 58 58 52 49 49 50 50 50 47 42 34 30 29 30 31 33 33 34 34
62 64 64 63 64 66 67 67 67 68 67 64 64 64 64 62 59 58 59 59 59 59 59 60 60 61 62 62 62 63 64 65 66 67 68 66 63 62 63 64 64 63 63 64 65 65 65 63 62 63 66 66 64 63 63 62 61 62 60 59 58 55 54 53 53 54 56 56 57 58 56 53 51 51 51 49 47 47 42 33 29 31 32 32 32 32 33 33
62 63 63 62 63 65 66 67 68 70 70 69 68 68 68 65 61 61 62 60 58 59 60 62 62 62 62 61 62 63 62 61 62 63 64 64 63 63 63 63 62 62 62 63 63 64 65 66 66 67 68 67 64 63 64 64 63 63 61 60 58 55 55 55 57 57 55 57 59 57 54 54 53 50 49 47 45 43 38 33 32 33 33 32 31 32 34 35
65 64 62 62 63 65 65 65 66 68 69 69 70 71 71 69 66 65 63 59 57 58 60 63 65 65 63 61 61 62 62 61 61 61 61 60 61 62 63 62 61 60 59 60 60 61 63 65 64 65 66 64 63 63 63 62 62 62 62 61 59 58 58 59 60 58 56 59 60 55 54 56 53 48 47 47 44 39 34 34 36 35 34 34 35 36 37 37
67 66 64 63 64 64 64 64 64 67 68 68 69 69 70 70 70 68 66 63 62 60 57 58 61 63 63 62 62 62 62 62 62 62 61 61 61 63 63 64 63 61 60 59 58 59 62 63 62 64 66 64 62 62 61 60 61 61 62 62 61 61 61 61 61 58 58 61 59 55 57 56 49 47 48 45 39 35 34 37 37 36 38 40 40 40 39 39
67 67 66 65 65 64 64 64 65 67 68 69 69 69 69 70 70 70 70 69 67 63 59 57 55 56 59 62 64 64 63 62 62 62 61 61 63 64 64 64 63 62 61 60 59 61 63 63 60 61 65 64 62 62 62 61 61 61 61 60 60 61 62 63 62 60 61 62 58 58 60 54 46 48 49 42 35 33 35 37 37 39 42 43 42 42 41 41
67 67 67 68 67 65 65 65 66 66 67 69 70 68 68 69 70 69 70 70 68 66 64 60 54 52 55 59 63 65 63 61 62 62 62 63 64 63 63 62 61 61 61 61 61 63 63 61 58 59 63 63 62 63 63 61 60 60 59 58 57 58 59 60 59 59 61 61 58 60 59 50 45 47 44 38 34 34 35 37 39 41 42 42 43 43 44 44
67 68 68 69 69 69 67 66 67 68 67 67 67 67 67 67 68 68 68 68 68 67 66 64 60 57 56 57 59 62 62 63 63 63 64 66 66 66 66 65 63 64 63 62 61 62 61 60 58 58 62 61 59 60 61 59 61 63 61 57 55 54 56 56 55 56 59 59 60 60 54 45 45 46 42 37 35 36 38 39 41 42 43 43 44 44 45 45
Wind_Direction
209 209 210 210 210 210 209 209 209 209 208 208 208 208 209 209 210 211 210 210 209 207 205 204 203 201 200 197 194 192 191 190 189 187 186 184 184 184 185 185 185 187 189 192 194 196 199 203 207 210 213 220 226 233 242 248 253 257 261 265 268 270 273 276 279 281 283 287 289 291 293 295 298 299 301 304 307 309 310 310 308 308 309 308 307 305 304 302
210 211 211 212 212 211 211 210 210 209 209 209 209 209 210 211 212 213 213 212 211 209 207 205 203 202 200 198 196 194 193 192 190 188 187 186 185 186 186 187 189 192 196 200 202 205 207 210 214 217 221 226 232 240 249 255 259 263 266 267 269 272 275 278 279 281 284 287 289 291 293 297 300 302 304 306 309 310 311 311 308 308 307 306 305 303 302 301
211 211 212 213 213 213 212 212 211 211 210 210 210 211 211 212 213 213 214 214 213 210 208 206 204 203 201 199 197 196 195 194 192 190 189 189 189 189 190 193 196 199 203 206 208 210 212 215 218 221 225 230 238 245 252 258 263 267 270 272 274 277 279 280 281 282 283 285 286 289 292 297 301 303 305 306 308 309 310 309 307 306 304 303 302 300 299 300
212 213 213 213 213 214 214 213 213 212 212 212 212 212 213 213 214 215 215 215 214 212 209 207 206 204 202 200 198 198 197 196 195 193 192 192 193 195 197 200 203 205 207 210 212 212 214 218 221 224 228 234 240 248 255 262 269 273 276 278 279 281 282 282 282 281 280 282 285 289 293 297 301 303 305 306 307 308 309 307 305 305 303 300 299 298 299 300
214 214 214 214 215 215 215 215 215 214 214 214 214 213 214 214 215 216 217 216 216 214 211 209 207 206 204 202 201 199 199 200 198 196 197 197 198 200 203 206 207 209 210 212 213 214 215 219 222 227 232 238 244 250 257 265 272 276 279 281 283 284 284 283 281 279 280 283 286 290 293 297 301 303 304 304 304 306 306 304 304 303 300 298 298 299 300 301
215 215 215 216 216 216 217 217 217 217 217 216 216 215 215 215 216 217 218 218 217 216 213 211 209 208 206 204 202 201 202 203 201 200 201 201 202 204 207 210 211 211 212 214 215 217 219 223 226 231 237 242 247 252 258 266 272 276 280 283 285 286 286 284 281 280 282 285 288 291 294 298 302 303 304 303 302 303 303 302 301 299 298 299 299 300 300 301
215 216 216 217 217 218 218 219 219 219 220 219 219 218 217 217 217 218 219 219 219 218 216 213 211 209 208 206 205 204 205 206 205 204 204 205 205 207 211 213 214 214 216 218 219 221 224 227 231 235 239 244 248 253 259 265 270 275 279 282 285 287 287 285 284 284 287 288 290 293 295 299 301 302 303 302 301 301 300 300 298 296 298 299 300 301 301 301
217 217 217 218 218 219 220 220 221 221 222 222 222 221 219 219 218 219 220 220 221 220 218 215 213 211 209 208 207 206 207 208 208 208 208 208 209 210 213 215 216 217 219 221 223 225 227 230 234 237 240 244 248 252 258 263 268 273 277 280 283 285 286 287 287 288 289 290 292 294 295 298 299 300 301 299 298 299 299 298 296 296 297 298 299 300 300 300
218 218 218 218 219 220 221 221 222 223 223 224 224 223 222 221 220 220 221 221 222 221 220 218 216 213 211 210 209 209 209 209 211 211 211 211 212 213 215 216 217 219 221 223 225 228 230 233 236 239 242 245 248 251 255 261 267 271 274 278 281 284 286 287 288 289 290 291 292 293 294 296 298 300 299 294 296 299 298 296 295 296 296 296 297 298 299 298
219 219 219 220 220 221 221 222 223 224 224 225 225 224 223 223 222 222 222 223 223 223 222 221 219 216 214 212 212 213 212 212 213 214 213 214 215 216 217 218 219 221 223 225 226 229 231 234 238 242 245 247 250 252 256 261 265 269 273 277 280 283 285 286 287 288 289 290 291 290 291 295 298 299 295 293 296 298 295 294 294 295 295 295 296 296 296 296
220 220 220 220 221 221 222 222 223 224 224 224 224 224 224 223 223 223 223 224 224 225 224 223 221 219 217 215 214 215 215 215 215 216 216 216 217 219 221 221 222 224 225 227 228 230 232 235 239 243 247 249 252 256 259 262 265 268 272 275 278 281 283 285 286 287 289 289 289 289 290 295 297 294 292 293 297 296 293 293 294 294 294 294 295 295 294 293
222 222 222 222 222 222 222 223 223 224 224 224 224 223 223 223 223 224 224 225 226 226 226 225 223 221 219 217 217 217 217 217 218 218 219 219 220 221 223 224 225 226 228 229 231 232 234 236 239 243 247 251 255 259 262 264 266 268 271 274 276 279 281 284 286 288 291 291 291 290 289 295 295 291 292 295 296 294 294 294 293 294 294 295 296 295 294 292
223 223 223 223 223 223 223 223 223 223 223 223 223 222 222 222 223 224 225 226 227 227 227 227 226 223 221 220 219 218 219 220 220 220 221 222 222 223 225 226 227 229 230 232 233 235 237 238 240 243 248 252 257 260 263 266 268 270 272 274 276 277 280 283 285 288 292 293 294 291 290 296 295 292 295 296 294 294 294 293 293 294 294 294 294 294 293 291
223 224 224 225 224 224 224 224 224 224 224 223 223 222 222 222 223 224 225 227 227 228 228 228 227 225 223 222 221 220 220 221 221 222 223 224 225 225 226 227 229 231 232 233 235 237 239 241 243 246 249 253 257 261 264 267 270 272 273 274 275 276 278 282 285 290 293 293 292 291 292 298 296 295 297 295 294 294 293 292 293 293 293 293 293 293 292 290
224 224 224 225 225 225 225 225 225 224 224 224 224 223 224 224 225 226 227 228 228 229 229 229 229 227 225 224 223 221 221 222 223 223 224 226 227 228 228 229 231 232 234 235 237 239 240 243 245 247 250 253 257 261 265 268 270 273 273 272 273 276 279 282 286 290 291 290 290 291 293 297 298 297 298 295 295 294 292 293 293 292 291 292 292 291 290 289
224 224 224 225 226 226 226 226 226 226 225 225 225 226 226 227 228 229 229 229 229 230 230 230 230 229 227 226 224 223 223 223 224 225 225 226 228 229 230 231 233 234 236 237 239 240 242 244 247 249 251 254 257 261 264 268 270 271 271 272 275 279 282 284 287 288 288 288 290 291 292 297 299 297 296 296 296 295 294 293 292 292 291 291 289 289 289 289
225 225 225 225 226 226 227 227 227 228 227 227 227 227 228 229 230 231 231 231 231 231 230 230 230 230 229 227 226 225 225 224 225 226 226 227 229 230 232 233 234 236 237 239 240 241 243 246 248 250 253 255 258 261 263 266 267 269 272 277 280 281 282 284 285 286 287 289 289 290 291 296 298 296 296 297 297 296 295 293 293 293 291 289 289 290 291 291
225 225 225 226 226 227 227 228 228 229 229 229 229 229 229 229 230 231 232 232 232 232 231 231 231 230 230 229 228 228 227 226 226 227 228 229 230 231 232 234 235 237 238 240 241 243 245 247 249 252 254 256 258 260 262 265 268 272 276 279 280 280 281 282 284 286 287 287 288 289 291 293 295 296 298 298 296 296 296 295 294 291 288 288 290 292 293 293
223 224 225 226 226 227 227 228 229 229 230 230 230 230 230 230 231 231 231 232 232 232 232 232 231 231 230 229 229 228 228 227 227 227 228 229 230 232 233 235 236 238 239 241 242 244 246 248 251 253 255 257 258 260 263 266 270 274 277 278 278 279 280 282 284 284 284 285 286 288 290 291 294 297 298 297 296 297 298 295 292 288 287 288 291 293 294 293
222 223 224 225 226 226 227 228 229 229 230 231 231 231 231 231 231 231 231 232 232 232 233 232 232 231 231 230 229 228 228 228 228 228 229 230 231 232 234 236 237 239 241 242 244 245 247 249 251 253 255 256 259 261 264 268 271 274 276 277 278 280 282 282 283 282 283 283 285 287 288 290 293 295 296 295 297 300 298 293 288 286 286 288 290 292 291 289
222 223 223 224 225 226 226 227 228 229 230 231 231 232 232 232 232 231 231 231 231 232 232 232 232 231 231 230 229 229 229 229 229 229 230 231 232 233 235 237 239 240 242 243 245 246 247 250 252 253 254 257 260 262 265 268 271 273 276 277 279 281 281 281 281 282 282 283 285 287 288 289 292 293 293 294 297 298 294 289 285 283 284 287 288 287 286 286
225 224 224 224 225 225 226 227 228 228 230 231 232 232 232 232 232 232 232 231 231 231 232 232 232 232 232 231 230 229 229 230 230 230 231 232 233 234 236 237 239 240 242 243 245 247 248 251 252 253 255 258 261 263 266 268 270 273 276 278 280 280 280 280 281 281 282 284 286 288 288 289 290 291 293 294 295 294 289 286 283 279 280 283 283 283 284 286
227 226 226 226 226 226 227 227 228 229 230 231 232 233 233 233 233 233 233 232 231 231 232 232 232 232 232 232 231 230 230 230 231 231 232 232 233 235 236 237 239 240 242 244 246 248 250 251 252 254 256 258 260 263 266 268 271 273 275 277 279 279 279 279 280 281 284 286 287 289 288 287 289 291 292 293 292 291 287 283 279 276 277 279 279 282 285 287
229 228 228 227 227 228 228 228 229 229 230 231 232 233 233 233 233 234 234 234 232 231 232 232 232 232 232 232 232 232 231 231 231 232 233 233 234 235 236 238 239 241 243 245 247 249 251 252 253 255 257 258 261 264 266 269 270 272 274 277 278 278 279 280 281 282 284 286 287 290 289 287 288 290 291 292 291 289 285 280 276 274 276 277 279 283 287 289
229 229 229 228 228 228 229 230 230 231 231 231 232 233 234 234 234 235 235 236 233 231 231 233 233 233 232 233 233 233 233 233 233 233 234 235 236 237 238 239 241 242 244 246 248 250 251 253 255 256 257 259 262 263 266 268 270 272 274 277 277 278 279 281 282 283 285 286 288 291 290 287 287 289 291 292 289 285 282 279 276 276 277 279 282 286 289 290
229 229 229 229 229 229 230 230 230 231 231 232 232 233 234 234 235 236 237 238 235 231 231 233 234 234 234 235 235 235 235 234 234 235 235 236 238 239 240 241 242 244 246 248 250 251 252 254 255 257 258 260 261 264 266 268 270 272 274 276 277 278 279 281 282 284 285 286 288 289 289 288 286 287 291 291 286 281 280 279 278 278 279 280 284 287 289 289
230 229 229 229 229 229 231 230 229 230 231 232 233 233 234 234 236 236 237 240 237 231 230 233 234 234 234 235 235 235 236 236 235 236 236 237 239 240 242 243 244 246 248 250 250 251 252 253 255 256 258 260 262 264 267 269 271 273 275 275 276 278 279 281 282 284 285 287 287 287 289 290 285 285 289 286 281 280 280 280 278 277 278 280 283 286 287 288
232 232 231 230 230 230 231 231 230 230 230 231 233 234 234 234 235 236 237 240 237 231 230 232 234 235 235 234 235 235 237 236 234 235 236 237 239 240 242 243 245 246 248 249 250 251 252 253 254 256 258 261 264 266 268 270 272 273 274 274 276 278 279 280 282 283 285 285 285 285 289 291 285 283 286 282 279 281 282 281 277 275 276 278 280 283 285 286
234 234 233 232 232 232 232 232 231 230 231 232 233 233 234 233 234 235 236 238 237 234 232 231 233 235 236 235 235 236 238 237 236 235 236 237 238 240 241 243 245 247 248 249 251 252 253 254 255 256 259 262 265 267 268 270 271 272 273 274 276 277 278 280 281 283 284 283 283 286 289 290 284 279 280 281 283 286 287 285 281 278 277 277 279 281 283 284
236 235 235 234 234 233 234 234 232 231 231 232 233 233 234 234 235 235 236 237 238 239 236 232 232 234 236 237 237 238 239 240 239 238 238 238 240 241 242 243 245 247 248 250 251 253 254 256 257 259 261 263 264 266 267 268 269 271 273 274 277 278 279 280 280 281 281 280 282 285 288 288 283 277 277 281 285 288 290 290 286 284 282 280 281 281 282 284
238 236 236 235 236 236 235 235 234 233 232 232 233 233 234 235 236 235 236 237 240 242 241 237 234 235 237 239 239 240 240 241 242 242 242 241 242 243 244 245 247 249 251 252 253 255 257 258 260 261 262 262 262 263 264 266 269 272 274 276 278 279 278 278 279 279 279 280 283 285 285 284 280 277 281 284 287 290 292 292 292 290 288 285 283 282 283 285
236 236 236 236 236 236 236 236 236 235 233 233 233 233 233 235 235 234 236 237 239 241 242 241 238 236 237 238 239 240 241 242 243 244 244 244 244 244 245 247 249 251 252 252 254 255 256 258 260 260 261 262 263 264 266 269 271 273 274 275 275 276 276 276 277 277 279 281 284 284 283 280 276 278 282 285 289 292 293 295 295 292 289 286 284 284 285 286
233 234 236 237 236 236 236 236 237 237 236 235 235 234 234 234 235 236 237 238 239 242 243 243 241 238 237 237 238 239 241 242 244 245 246 246 246 245 246 247 247 249 251 252 254 256 257 258 259 261 263 264 266 268 269 271 271 272 272 272 273 274 275 276 277 279 280 281 281 280 279 277 277 280 283 285 288 290 293 296 295 290 287 285 285 286 286 286
229 231 233 235 236 236 235 236 237 238 238 238 238 237 236 236 237 238 240 240 241 244 246 246 245 242 240 239 239 240 241 243 244 246 247 248 248 248 248 249 249 251 253 255 256 258 259 259 260 263 265 266 268 269 269 270 270 270 271 271 272 273 274 276 278 280 280 279 278 276 275 276 279 283 284 285 286 289 292 293 290 287 286 286 288 288 287 283
225 226 229 231 232 233 234 235 237 238 238 238 239 239 239 240 241 242 243 244 243 244 246 247 247 246 244 242 241 242 243 244 245 246 247 248 250 250 251 252 253 254 255 256 258 259 261 261 262 264 265 266 267 267 268 268 269 270 271 271 272 273 274 276 277 277 278 277 276 276 275 278 281 282 283 285 287 290 291 289 286 286 286 288 289 288 284 280
226 226 228 229 229 230 232 235 237 239 239 237 237 237 239 243 246 246 246 245 245 246 247 248 250 250 249 247 245 244 244 246 247 247 249 250 251 252 253 255 256 257 257 258 260 260 261 262 262 263 263 264 265 266 267 268 268 269 269 270 272 273 273 274 274 275 276 276 277 277 277 279 281 281 281 284 287 289 288 286 285 285 287 288 288 286 281 276
231 230 231 230 231 231 232 235 237 240 241 240 239 239 239 240 243 245 246 245 246 247 247 249 251 252 253 253 251 249 248 248 248 250 251 252 253 253 255 257 258 259 260 261 261 261 262 262 261 261 262 263 264 265 265 266 266 267 268 270 271 271 271 272 273 274 275 275 276 277 277 278 279 279 281 284 285 286 286 285 285 285 286 286 286 284 277 270
234 233 232 230 230 231 232 234 234 236 240 241 241 242 241 239 238 240 243 243 244 245 245 247 249 251 252 253 253 252 251 250 250 250 251 253 253 253 254 256 257 259 260 261 261 261 262 262 261 260 261 262 262 262 262 263 264 266 267 269 269 270 271 271 272 273 274 275 275 275 276 276 276 279 281 283 284 285 286 286 285 285 285 284 282 278 269 263
234 234 232 229 228 230 231 232 234 237 241 242 242 241 242 241 238 238 240 241 242 244 244 245 247 249 250 251 252 253 253 252 251 251 251 252 252 251 252 255 256 257 258 259 260 261 261 261 259 259 259 260 260 260 261 263 264 266 267 268 269 270 270 270 271 272 273 274 274 274 274 274 276 279 280 281 282 282 283 285 285 284 282 279 275 269 262 258
232 231 231 230 230 232 231 231 233 238 241 242 241 238 239 240 238 238 240 240 242 244 244 245 247 249 250 251 252 253 253 253 252 252 251 251 250 249 250 252 253 254 256 258 259 259 259 259 259 259 259 259 260 262 264 265 265 266 266 266 267 268 269 270 270 270 270 270 272 274 276 273 274 278 278 279 279 278 282 287 286 283 278 271 267 263 258 257
233 230 229 229 230 231 232 233 235 239 242 241 238 233 233 236 236 238 239 240 242 243 244 245 246 248 249 250 252 253 253 254 253 253 252 251 251 250 249 251 252 253 255 257 258 259 260 261 261 261 260 260 262 263 264 263 263 263 264 265 265 266 267 266 267 267 268 271 274 278 277 272 272 276 276 278 280 282 287 288 282 277 271 265 261 259 257 258
237 234 231 229 229 230 232 236 238 241 243 242 237 233 231 232 235 238 238 238 239 241 243 244 245 247 248 249 251 252 253 253 253 253 253 253 252 252 251 252 253 253 254 256 257 259 261 261 260 259 258 259 260 261 261 262 263 264 264 264 264 264 264 266 268 270 273 275 275 276 275 271 271 275 274 277 281 284 287 285 278 270 265 261 259 258 258 259
237 236 234 232 232 232 234 236 237 239 242 242 239 236 233 231 232 235 237 237 238 240 242 243 244 246 247 248 250 251 252 253 253 253 254 254 253 253 252 252 253 253 254 255 256 257 259 259 259 259 259 260 260 260 261 261 260 260 261 263 264 267 270 272 272 272 272 272 273 274 273 270 270 272 275 278 279 280 284 283 274 265 261 259 259 259 260 260
237 235 233 232 233 232 233 235 236 238 241 242 242 240 236 232 231 233 235 238 239 239 240 241 243 244 246 246 247 249 250 252 253 253 253 253 252 252 253 253 253 253 254 254 256 257 258 259 259 259 259 258 257 257 257 258 260 262 265 268 270 272 273 273 272 271 270 270 271 271 269 270 272 274 278 280 278 279 282 278 269 263 259 257 258 259 259 259
237 236 233 232 232 233 233 234 235 236 239 241 242 242 240 235 232 232 234 236 238 238 238 240 242 243 244 244 246 247 248 250 251 252 251 251 250 249 251 253 253 253 254 254 256 257 257 257 255 254 255 256 255 256 258 261 265 268 269 269 269 269 270 271 270 269 268 266 265 266 269 274 277 277 278 278 279 282 282 276 268 263 259 256 256 256 256 257
237 237 235 234 234 234 234 235 235 235 236 238 241 242 242 239 234 233 234 234 236 238 239 240 240 241 243 244 245 246 247 248 249 250 250 250 250 250 252 253 254 254 255 255 255 256 256 256 254 254 256 257 258 260 262 264 265 266 266 267 268 268 268 269 267 265 267 268 267 268 274 277 277 277 277 277 279 282 280 273 265 260 258 258 257 256 257 259
237 237 237 236 236 235 235 235 235 237 238 238 239 241 242 240 237 236 236 235 236 238 240 240 240 241 243 244 245 246 246 247 248 248 249 249 250 251 252 253 253 253 254 255 255 254 255 256 256 257 259 260 261 262 262 262 263 263 263 264 264 266 267 267 266 266 269 269 268 271 275 275 274 276 276 276 276 275 275 274 270 267 267 266 263 260 261 262
238 237 237 237 237 237 237 236 237 239 241 240 241 241 242 241 240 240 238 236 236 238 240 241 240 240 242 243 245 246 246 247 248 248 248 248 249 250 251 252 252 252 253 253 254 255 256 258 259 261 262 262 262 261 260 261 261 262 261 261 262 264 265 265 266 267 268 268 269 272 272 271 272 273 272 271 271 272 275 277 275 275 275 272 268 267 267 268
238 238 237 237 237 238 239 238 236 236 237 238 239 241 242 242 242 242 241 240 239 238 240 242 241 241 242 243 245 247 247 248 250 250 250 251 251 252 252 253 253 254 254 255 255 257 259 261 262 264 265 264 263 263 262 261 260 259 259 260 262 263 264 264 264 265 265 266 268 269 268 268 271 270 267 268 272 276 276 273 273 273 272 270 271 272 272 272
239 239 239 239 239 238 238 238 236 234 235 236 237 238 241 242 242 243 244 244 242 239 240 242 241 242 244 245 245 247 247 249 251 252 253 254 253 253 254 255 257 257 258 258 259 259 261 264 265 265 265 263 262 263 264 262 261 260 260 261 262 263 263 263 263 262 263 265 268 267 266 268 270 267 267 272 276 274 269 267 268 268 268 270 272 272 272 272
239 240 240 240 240 239 238 237 237 236 235 235 236 237 240 242 243 243 244 245 244 242 242 242 242 244 247 246 246 247 246 247 250 251 251 252 253 253 254 255 257 258 259 259 260 261 262 263 263 263 263 262 261 263 264 264 264 262 260 260 261 263 265 265 265 263 263 264 265 263 264 269 271 269 270 273 271 266 263 264 265 266 267 269 270 271 272 273
238 239 240 241 241 240 239 238 237 237 236 236 237 238 239 240 241 242 243 244 245 245 245 244 243 244 246 246 247 247 246 246 248 249 249 250 251 252 252 252 252 254 255 257 258 259 260 261 262 262 263 263 262 262 263 263 260 258 258 260 263 265 267 267 265 262 260 260 260 261 265 271 270 266 263 262 260 261 264 266 267 266 266 266 267 269 272 274
Height
5807 5809 5811 5813 5815 5817 5819 5820 5822 5824 5826 5828 5829 5831 5833 5834 5836 5837 5839 5840 5841 5843 5844 5846 5847 5848 5849 5851 5852 5854 5855 5857 5858 5859 5860 5862 5863 5864 5865 5867 5868 5869 5870 5871 5872 5873 5874 5875 5875 5876 5877 5877 5878 5879 5879 5880 5880 5881 5881 5881 5881 5881 5881 5881 5881 5881 5881 5881 5881 5881 5881 5882 5882 5882 5881 5881 5881 5880 5880 5880 5880 5880 5879 5879 5879 5879 5878 5878
5804 5806 5809 5811 5813 5815 5817 5818 5820 5822 5824 5826 5828 5829 5831 5833 5834 5836 5837 5839 5840 5842 5843 5844 5846 5847 5848 5850 5851 5853 5855 5856 5857 5858 5860 5861 5862 5863 5865 5866 5867 5868 5870 5871 5872 5873 5873 5874 5875 5875 5876 5876 5877 5878 5878 5878 5879 5879 5880 5880 5880 5880 5880 5880 5880 5880 5880 5880 5880 5880 5880 5880 5881 5880 5880 5880 5879 5879 5879 5879 5879 5878 5878 5878 5878 5877 5877 5877
5801 5804 5806 5808 5811 5813 5815 5817 5818 5820 5822 5824 5826 5828 5829 5831 5832 5834 5836 5837 5839 5840 5842 5843 5844 5846 5847 5849 5850 5852 5854 5855 5856 5857 5859 5860 5861 5863 5864 5865 5866 5868 5869 5870 5871 5872 5873 5873 5874 5874 5875 5876 5876 5877 5877 5877 5878 5878 5879 5879 5879 5879 5879 5879 5879 5879 5879 5879 5879 5878 5878 5879 5879 5879 5879 5878 5878 5878 5878 5878 5878 5877 5877 5877 5877 5876 5875 5875
5799 5801 5803 5806 5808 5810 5812 5814 5816 5818 5820 5822 5824 5825 5827 5829 5830 5832 5834 5835 5837 5838 5840 5841 5843 5845 5846 5848 5849 5851 5852 5854 5855 5856 5858 5859 5861 5862 5863 5864 5866 5867 5868 5869 5870 5871 5871 5872 5873 5873 5874 5875 5875 5876 5876 5876 5877 5877 5877 5878 5878 5878 5878 5878 5878 5878 5878 5878 5878 5877 5877 5878 5878 5878 5878 5877 5877 5877 5877 5877 5876 5876 5876 5875 5875 5875 5874 5874
5796 5798 5800 5803 5805 5808 5810 5812 5814 5816 5818 5820 5821 5823 5825 5827 5828 5830 5832 5833 5835 5837 5838 5840 5841 5843 5844 5846 5848 5850 5851 5852 5854 5855 5857 5858 5860 5861 5862 5863 5865 5866 5867 5868 5869 5869 5870 5871 5872 5872 5873 5874 5874 5875 5875 5875 5875 5876 5876 5876 5877 5877 5877 5877 5877 5877 5877 5877 5877 5877 5876 5876 5877 5877 5877 5876 5876 5876 5876 5875 5875 5875 5874 5874 5873 5873 5872 5872
5793 5795 5797 5800 5802 5805 5807 5809 5811 5813 5815 5817 5819 5821 5822 5824 5826 5828 5829 5831 5833 5835 5837 5838 5840 5842 5843 5845 5847 5848 5850 5851 5853 5854 5856 5857 5859 5860 5861 5862 5864 5865 5865 5866 5867 5868 5869 5870 5871 5871 5872 5873 5873 5873 5874 5874 5874 5874 5875 5875 5875 5876 5876 5876 5876 5876 5876 5876 5876 5876 5875 5875 5875 5875 5875 5874 5874 5874 5874 5874 5874 5873 5872 5872 5871 5871 5870 5870
5789 5792 5794 5797 5799 5802 5804 5806 5808 5811 5813 5814 5816 5818 5820 5822 5824 5825 5827 5829 5831 5833 5835 5836 5838 5840 5842 5843 5845 5847 5848 5850 5851 5853 5854 5856 5857 5859 5860 5861 5862 5863 5864 5865 5866 5867 5868 5869 5869 5870 5870 5871 5872 5872 5872 5873 5873 5873 5874 5874 5874 5874 5874 5874 5874 5874 5875 5874 5874 5875 5874 5874 5874 5874 5873 5872 5872 5872 5872 5872 5872 5871 5871 5870 5869 5869 5868 5868
5786 5788 5791 5793 5796 5798 5800 5803 5805 5807 5810 5812 5814 5815 5817 5819 5821 5823 5825 5826 5828 5830 5832 5834 5836 5838 5840 5842 5843 5845 5846 5848 5850 5851 5853 5854 5856 5857 5858 5860 5861 5862 5863 5864 5865 5865 5866 5867 5868 5868 5869 5870 5870 5871 5871 5871 5872 5872 5872 5872 5873 5873 5873 5873 5873 5873 5873 5873 5873 5873 5873 5873 5873 5873 5872 5870 5870 5871 5870 5870 5870 5870 5869 5869 5868 5867 5866 5865
5782 5784 5787 5789 5792 5794 5797 5799 5802 5804 5806 5809 5811 5813 5815 5816 5818 5820 5822 5824 5826 5828 5830 5832 5834 5836 5838 5840 5842 5843 5845 5847 5848 5850 5851 5853 5854 5855 5857 5858 5859 5860 5861 5862 5863 5864 5865 5866 5866 5867 5867 5868 5869 5869 5870 5870 5871 5871 5871 5871 5871 5871 5872 5872 5871 5872 5872 5872 5872 5871 5871 5871 5871 5871 5870 5869 5869 5869 5869 5868 5868 5868 5867 5867 5866 5865 5864 5863
5778 5781 5783 5785 5788 5790 5793 5795 5798 5800 5803 5805 5807 5809 5811 5813 5815 5817 5819 5821 5823 5825 5827 5829 5831 5834 5836 5838 5840 5841 5843 5845 5846 5847 5849 5851 5852 5853 5855 5856 5857 5858 5859 5860 5861 5862 5863 5864 5864 5865 5866 5866 5867 5868 5868 5869 5869 5869 5869 5869 5869 5870 5870 5870 5870 5870 5870 5870 5870 5870 5869 5870 5870 5870 5868 5867 5867 5867 5867 5866 5866 5866 5865 5865 5864 5864 5863 5862
5775 5777 5779 5781 5784 5786 5789 5791 5794 5796 5799 5801 5803 5806 5808 5810 5812 5814 5816 5818 5820 5822 5824 5827 5829 5831 5833 5835 5837 5838 5841 5843 5844 5845 5847 5848 5850 5851 5853 5854 5855 5856 5857 5858 5859 5860 5861 5862 5863 5863 5864 5865 5865 5866 5866 5867 5867 5868 5868 5868 5868 5868 5868 5868 5868 5868 5869 5869 5868 5868 5868 5868 5868 5868 5866 5865 5865 5865 5865 5864 5864 5863 5863 5862 5862 5861 5861 5860
5771 5774 5776 5778 5780 5782 5785 5787 5790 5792 5795 5797 5800 5802 5804 5806 5809 5811 5813 5815 5817 5819 5821 5824 5826 5828 5830 5833 5834 5836 5838 5840 5841 5843 5844 5846 5848 5849 5850 5852 5853 5854 5855 5856 5857 5858 5859 5860 5861 5861 5862 5863 5863 5864 5864 5865 5865 5866 5866 5866 5866 5866 5866 5866 5866 5866 5866 5866 5866 5865 5866 5867 5866 5865 5864 5863 5863 5862 5862 5862 5861 5861 5860 5860 5859 5859 5858 5858
5768 5770 5772 5775 5777 5779 5781 5784 5786 5788 5791 5793 5796 5798 5800 5803 5805 5807 5809 5811 5814 5816 5818 5820 5822 5825 5827 5829 5831 5833 5835 5837 5839 5841 5842 5844 5845 5847 5848 5849 5851 5852 5853 5854 5855 5856 5857 5858 5859 5860 5860 5861 5861 5862 5862 5863 5863 5864 5864 5864 5864 5864 5864 5864 5863 5864 5864 5863 5863 5862 5863 5865 5863 5862 5862 5861 5860 5860 5860 5859 5859 5858 5858 5857 5857 5856 5856 5855
5763 5766 5769 5771 5773 5775 5778 5780 5782 5785 5787 5789 5792 5794 5796 5798 5800 5803 5805 5807 5810 5812 5814 5817 5819 5821 5823 5826 5828 5830 5832 5834 5836 5837 5839 5841 5842 5844 5845 5847 5848 5849 5850 5852 5852 5854 5854 5855 5856 5857 5858 5859 5859 5860 5860 5861 5861 5861 5861 5861 5861 5861 5862 5862 5862 5862 5862 5861 5861 5859 5859 5862 5861 5859 5859 5859 5858 5857 5857 5857 5856 5856 5855 5855 5854 5853 5853 5852
5759 5762 5765 5767 5770 5772 5774 5777 5779 5781 5784 5786 5788 5790 5792 5794 5797 5799 5801 5804 5806 5808 5811 5813 5815 5817 5820 5822 5824 5826 5828 5830 5832 5834 5836 5838 5840 5841 5843 5844 5845 5846 5848 5849 5850 5851 5852 5853 5854 5855 5856 5856 5857 5857 5858 5858 5859 5859 5858 5858 5858 5859 5860 5860 5860 5860 5859 5858 5858 5857 5856 5859 5858 5856 5856 5856 5855 5855 5855 5855 5854 5854 5853 5852 5851 5851 5850 5849
5755 5758 5760 5763 5766 5768 5771 5773 5775 5778 5780 5782 5784 5787 5789 5791 5793 5795 5798 5800 5802 5804 5807 5809 5811 5814 5816 5818 5820 5823 5824 5827 5829 5831 5833 5835 5836 5838 5840 5841 5842 5844 5845 5846 5847 5848 5849 5850 5851 5852 5853 5854 5855 5855 5856 5856 5856 5856 5855 5855 5856 5857 5857 5858 5857 5857 5856 5855 5855 5854 5854 5855 5856 5854 5853 5853 5852 5852 5852 5852 5852 5851 5850 5850 5849 5848 5848 5847
5751 5754 5756 5759 5761 5764 5767 5769 5772 5774 5776 5778 5780 5783 5785 5787 5789 5792 5794 5796 5798 5801 5803 5805 5807 5810 5812 5815 5817 5819 5821 5823 5825 5827 5829 5831 5833 5835 5836 5838 5839 5840 5841 5842 5844 5845 5846 5847 5848 5849 5850 5851 5852 5853 5853 5853 5853 5853 5853 5854 5855 5855 5855 5855 5854 5854 5853 5853 5852 5851 5851 5853 5853 5851 5851 5851 5850 5850 5850 5850 5849 5849 5848 5847 5846 5845 5845 5844
5746 5749 5752 5754 5757 5760 5762 5765 5768 5770 5772 5775 5777 5779 5781 5783 5785 5787 5790 5792 5794 5796 5798 5801 5803 5805 5808 5811 5813 5815 5817 5820 5822 5824 5825 5827 5829 5831 5833 5834 5835 5836 5838 5839 5841 5842 5843 5844 5845 5846 5847 5848 5849 5849 5850 5850 5850 5851 5851 5852 5852 5852 5852 5852 5851 5851 5850 5849 5849 5848 5848 5850 5850 5848 5848 5848 5847 5847 5848 5847 5846 5846 5845 5844 5843 5843 5842 5841
5741 5744 5747 5750 5752 5755 5758 5760 5763 5766 5768 5771 5773 5775 5777 5779 5781 5783 5786 5788 5790 5792 5794 5797 5799 5802 5805 5807 5809 5811 5813 5815 5817 5819 5821 5823 5825 5827 5829 5830 5831 5833 5834 5836 5837 5839 5840 5841 5842 5843 5844 5845 5845 5846 5846 5847 5848 5848 5848 5848 5848 5848 5849 5849 5848 5847 5847 5846 5846 5845 5845 5846 5847 5846 5845 5844 5844 5845 5845 5844 5843 5843 5842 5841 5841 5840 5839 5838
5736 5739 5742 5745 5747 5750 5753 5755 5759 5761 5764 5766 5769 5771 5773 5775 5777 5779 5781 5784 5786 5788 5790 5793 5795 5798 5800 5803 5805 5807 5808 5811 5813 5815 5817 5819 5821 5823 5824 5826 5828 5829 5831 5833 5834 5835 5836 5837 5839 5841 5841 5841 5842 5843 5843 5844 5845 5845 5845 5845 5845 5845 5846 5845 5844 5844 5843 5842 5842 5842 5841 5842 5843 5844 5842 5840 5840 5842 5842 5841 5840 5840 5839 5838 5838 5837 5836 5835
5732 5734 5737 5740 5743 5745 5748 5751 5754 5756 5759 5762 5764 5766 5768 5770 5772 5774 5777 5779 5781 5783 5786 5788 5791 5794 5796 5798 5800 5802 5804 5806 5809 5811 5813 5815 5817 5819 5821 5823 5825 5826 5827 5828 5830 5831 5832 5835 5837 5837 5837 5838 5838 5839 5840 5841 5841 5841 5841 5841 5842 5842 5842 5841 5840 5840 5839 5838 5839 5838 5837 5838 5839 5839 5839 5838 5838 5839 5838 5837 5837 5837 5836 5835 5835 5834 5833 5832
5728 5730 5733 5735 5738 5741 5743 5746 5749 5752 5755 5758 5760 5762 5764 5766 5767 5770 5772 5773 5776 5778 5781 5784 5787 5790 5792 5794 5796 5799 5800 5802 5805 5807 5809 5811 5813 5815 5817 5819 5820 5821 5822 5824 5825 5827 5829 5832 5833 5833 5833 5835 5835 5836 5836 5837 5837 5838 5838 5838 5838 5838 5838 5837 5836 5835 5834 5834 5834 5834 5832 5834 5835 5835 5836 5836 5836 5836 5834 5834 5834 5834 5833 5833 5832 5831 5830 5829
5724 5727 5729 5732 5735 5736 5739 5742 5745 5748 5751 5753 5756 5757 5759 5761 5763 5765 5766 5768 5770 5774 5777 5780 5783 5785 5788 5790 5793 5795 5796 5799 5801 5802 5805 5807 5808 5810 5812 5814 5815 5816 5818 5820 5822 5824 5826 5829 5829 5829 5830 5831 5831 5832 5833 5833 5833 5834 5834 5834 5834 5834 5833 5833 5833 5831 5831 5830 5829 5829 5826 5827 5831 5831 5832 5833 5832 5832 5831 5830 5830 5831 5830 5829 5828 5828 5827 5826
5720 5723 5725 5728 5730 5732 5735 5738 5742 5745 5747 5749 5751 5752 5754 5756 5758 5759 5761 5762 5765 5770 5773 5775 5778 5782 5785 5786 5788 5791 5792 5794 5796 5798 5800 5802 5803 5805 5807 5809 5810 5812 5814 5816 5818 5820 5823 5824 5825 5825 5826 5827 5828 5829 5829 5829 5829 5829 5830 5831 5830 5830 5829 5828 5828 5827 5827 5826 5825 5824 5820 5819 5825 5827 5828 5830 5828 5827 5828 5827 5827 5827 5826 5825 5825 5824 5824 5823
5715 5718 5721 5724 5726 5728 5731 5735 5740 5742 5743 5745 5746 5746 5749 5751 5753 5755 5755 5755 5759 5765 5769 5771 5774 5778 5780 5782 5784 5787 5788 5790 5793 5794 5796 5798 5799 5801 5803 5804 5806 5809 5810 5812 5814 5817 5820 5820 5821 5822 5822 5823 5824 5825 5825 5824 5825 5826 5827 5827 5826 5825 5825 5824 5824 5823 5823 5823 5822 5821 5814 5811 5817 5822 5824 5826 5825 5823 5823 5823 5824 5824 5822 5822 5821 5821 5820 5819
5708 5712 5715 5718 5721 5723 5726 5732 5737 5737 5738 5740 5740 5742 5744 5746 5748 5750 5751 5749 5752 5761 5765 5767 5770 5773 5776 5778 5781 5782 5783 5787 5790 5790 5792 5794 5795 5797 5799 5800 5803 5805 5807 5808 5810 5813 5816 5816 5816 5817 5818 5819 5820 5821 5821 5820 5820 5822 5823 5823 5821 5821 5821 5820 5820 5818 5818 5818 5818 5818 5812 5806 5808 5815 5820 5821 5820 5819 5820 5820 5821 5820 5819 5818 5818 5817 5816 5815
5702 5706 5709 5712 5715 5718 5722 5728 5730 5731 5734 5734 5734 5737 5739 5741 5743 5745 5746 5743 5746 5757 5762 5763 5766 5769 5773 5775 5776 5777 5778 5783 5786 5786 5788 5790 5791 5793 5794 5797 5800 5801 5803 5803 5805 5809 5811 5811 5812 5813 5814 5814 5816 5817 5817 5815 5816 5818 5819 5818 5816 5817 5817 5816 5815 5814 5813 5813 5812 5811 5811 5806 5803 5808 5814 5815 5814 5815 5817 5818 5818 5817 5816 5815 5814 5813 5812 5811
5697 5700 5703 5707 5710 5713 5718 5722 5724 5727 5728 5727 5729 5732 5734 5736 5737 5739 5740 5737 5743 5753 5756 5759 5762 5764 5767 5769 5771 5771 5773 5778 5780 5780 5783 5784 5786 5788 5790 5793 5795 5796 5797 5798 5800 5804 5805 5806 5807 5809 5809 5810 5813 5813 5812 5812 5812 5813 5814 5812 5812 5812 5812 5811 5811 5810 5809 5808 5805 5805 5808 5805 5800 5802 5806 5807 5809 5812 5814 5815 5814 5814 5813 5812 5811 5810 5808 5807
5691 5694 5698 5701 5704 5708 5713 5716 5720 5721 5720 5721 5723 5725 5728 5730 5730 5732 5732 5733 5741 5747 5750 5755 5758 5759 5762 5764 5766 5767 5769 5772 5774 5776 5778 5778 5781 5783 5785 5788 5790 5791 5792 5793 5796 5799 5799 5801 5803 5804 5806 5808 5808 5808 5808 5807 5807 5808 5809 5808 5808 5807 5807 5807 5806 5805 5804 5801 5800 5802 5804 5802 5798 5798 5800 5801 5804 5807 5809 5811 5810 5810 5809 5808 5807 5805 5804 5803
5685 5688 5692 5694 5698 5704 5708 5712 5714 5713 5714 5716 5717 5719 5722 5722 5724 5725 5724 5731 5741 5742 5744 5751 5753 5755 5757 5759 5761 5763 5765 5767 5769 5772 5773 5774 5777 5779 5781 5784 5784 5786 5787 5789 5792 5793 5794 5796 5798 5800 5803 5804 5804 5803 5803 5802 5802 5803 5804 5803 5803 5802 5802 5802 5800 5800 5798 5795 5796 5799 5801 5799 5794 5792 5795 5798 5799 5801 5803 5804 5804 5804 5804 5802 5802 5800 5799 5798
5679 5683 5686 5689 5694 5698 5703 5707 5706 5705 5707 5709 5710 5712 5714 5715 5716 5715 5719 5733 5740 5735 5737 5745 5750 5752 5753 5755 5757 5759 5761 5762 5765 5767 5768 5771 5773 5774 5777 5779 5780 5782 5783 5786 5788 5789 5790 5792 5794 5796 5798 5798 5798 5798 5798 5798 5799 5799 5800 5800 5799 5797 5796 5795 5794 5794 5792 5791 5794 5796 5796 5795 5788 5787 5791 5793 5794 5795 5797 5798 5797 5797 5797 5796 5795 5794 5793 5793
5673 5677 5680 5684 5688 5692 5697 5700 5697 5697 5699 5701 5702 5704 5707 5707 5704 5707 5721 5734 5733 5727 5731 5738 5744 5747 5748 5749 5751 5753 5755 5757 5760 5761 5763 5766 5767 5770 5773 5774 5777 5778 5778 5781 5783 5783 5785 5787 5789 5790 5791 5793 5793 5793 5794 5794 5795 5795 5795 5795 5793 5791 5789 5788 5788 5788 5788 5789 5791 5791 5790 5787 5782 5784 5789 5790 5790 5790 5790 5792 5792 5790 5789 5788 5787 5787 5788 5788
5667 5672 5674 5677 5682 5686 5691 5692 5688 5689 5693 5694 5694 5696 5698 5694 5695 5708 5723 5728 5723 5722 5728 5732 5736 5739 5740 5743 5745 5747 5750 5751 5754 5756 5757 5760 5762 5765 5768 5769 5771 5771 5773 5776 5777 5777 5780 5782 5784 5784 5786 5788 5788 5789 5790 5790 5790 5789 5789 5788 5787 5786 5783 5782 5783 5783 5784 5786 5786 5786 5783 5779 5777 5781 5785 5787 5788 5786 5785 5786 5785 5783 5782 5781 5781 5782 5783 5783
5662 5665 5668 5672 5675 5678 5683 5684 5682 5683 5686 5687 5686 5687 5686 5684 5695 5711 5718 5719 5718 5720 5725 5725 5726 5730 5733 5738 5740 5743 5745 5746 5749 5751 5752 5754 5756 5760 5763 5764 5767 5768 5770 5772 5772 5773 5775 5776 5780 5781 5781 5783 5783 5784 5784 5783 5783 5782 5782 5781 5781 5781 5779 5778 5779 5778 5778 5779 5779 5779 5777 5773 5775 5778 5779 5781 5784 5784 5783 5781 5779 5777 5776 5776 5776 5777 5778 5778
5655 5657 5660 5664 5668 5672 5677 5678 5677 5677 5678 5680 5679 5676 5674 5680 5698 5710 5712 5714 5715 5716 5720 5718 5715 5720 5726 5731 5735 5738 5740 5742 5744 5745 5746 5748 5752 5755 5758 5761 5763 5765 5766 5767 5768 5769 5768 5771 5776 5776 5776 5777 5777 5777 5777 5776 5776 5776 5776 5774 5774 5776 5776 5775 5775 5773 5773 5772 5771 5772 5770 5770 5772 5774 5773 5774 5777 5780 5779 5776 5773 5771 5771 5771 5772 5772 5773 5773
5647 5650 5653 5657 5663 5668 5671 5671 5671 5670 5669 5672 5669 5664 5668 5683 5698 5704 5705 5708 5710 5711 5715 5712 5709 5713 5718 5724 5730 5733 5735 5737 5739 5739 5741 5744 5747 5751 5755 5757 5759 5760 5762 5763 5763 5763 5763 5765 5769 5769 5769 5770 5770 5770 5770 5770 5769 5769 5769 5769 5770 5772 5772 5770 5768 5768 5768 5765 5764 5765 5765 5766 5768 5768 5769 5771 5772 5774 5773 5771 5769 5767 5767 5767 5767 5767 5768 5768
5641 5643 5646 5652 5659 5662 5663 5664 5664 5662 5662 5662 5658 5659 5671 5685 5694 5696 5696 5700 5702 5705 5708 5706 5705 5708 5712 5716 5721 5727 5730 5731 5732 5734 5737 5739 5741 5746 5751 5753 5754 5756 5758 5758 5756 5757 5757 5758 5761 5762 5762 5763 5764 5763 5763 5763 5762 5762 5762 5765 5766 5765 5765 5764 5763 5763 5762 5759 5759 5760 5760 5762 5763 5762 5765 5766 5766 5768 5768 5765 5764 5763 5763 5763 5762 5762 5763 5764
5636 5637 5640 5647 5652 5653 5656 5657 5656 5655 5655 5652 5650 5658 5670 5681 5689 5690 5687 5690 5693 5695 5698 5699 5699 5702 5705 5707 5712 5718 5720 5722 5726 5728 5730 5731 5734 5742 5746 5746 5749 5751 5752 5751 5748 5750 5751 5750 5753 5755 5755 5756 5757 5756 5755 5756 5756 5756 5757 5759 5760 5758 5759 5759 5757 5757 5756 5753 5753 5754 5755 5757 5758 5759 5760 5760 5760 5762 5763 5761 5759 5759 5759 5758 5759 5759 5759 5760
5630 5631 5635 5641 5645 5647 5650 5651 5649 5647 5645 5642 5645 5655 5665 5675 5683 5680 5677 5682 5685 5685 5688 5692 5695 5696 5697 5700 5704 5707 5709 5713 5717 5720 5722 5725 5728 5736 5740 5740 5742 5744 5744 5743 5740 5742 5744 5742 5744 5747 5748 5748 5748 5748 5749 5750 5752 5752 5752 5753 5753 5752 5752 5752 5751 5752 5751 5748 5748 5748 5749 5753 5755 5755 5754 5754 5754 5755 5757 5756 5755 5755 5755 5755 5755 5755 5755 5756
5622 5626 5630 5636 5640 5642 5644 5645 5641 5636 5635 5635 5642 5652 5660 5666 5670 5668 5670 5677 5677 5676 5681 5688 5690 5689 5691 5695 5697 5698 5701 5704 5708 5711 5713 5717 5722 5728 5732 5733 5734 5736 5736 5734 5733 5735 5735 5734 5736 5739 5740 5739 5740 5743 5745 5746 5747 5746 5745 5745 5745 5745 5745 5745 5745 5745 5744 5743 5744 5745 5746 5749 5751 5749 5748 5748 5747 5749 5753 5753 5751 5751 5751 5750 5750 5750 5751 5752
5615 5619 5624 5630 5632 5634 5637 5635 5629 5627 5627 5630 5638 5649 5653 5654 5657 5659 5664 5669 5669 5670 5675 5680 5682 5683 5686 5689 5690 5692 5694 5695 5698 5701 5704 5709 5715 5720 5725 5727 5728 5729 5728 5726 5726 5729 5728 5727 5729 5731 5732 5733 5735 5737 5738 5738 5738 5738 5738 5738 5739 5739 5738 5737 5736 5737 5739 5740 5743 5743 5741 5743 5747 5745 5743 5742 5740 5744 5749 5748 5747 5747 5747 5746 5746 5746 5747 5748
5608 5612 5618 5622 5623 5626 5628 5624 5622 5622 5622 5626 5636 5643 5644 5646 5650 5653 5656 5660 5661 5664 5668 5671 5674 5677 5680 5683 5684 5685 5686 5687 5690 5693 5696 5702 5707 5713 5717 5719 5719 5721 5721 5719 5721 5723 5721 5720 5721 5722 5724 5726 5727 5728 5729 5730 5730 5730 5730 5731 5731 5731 5731 5731 5731 5734 5737 5737 5739 5738 5733 5738 5743 5740 5738 5738 5737 5740 5743 5743 5743 5743 5742 5742 5742 5742 5743 5744
5601 5606 5609 5612 5614 5618 5618 5616 5617 5618 5617 5624 5631 5633 5634 5639 5643 5645 5649 5653 5656 5659 5661 5664 5667 5670 5673 5677 5678 5677 5679 5681 5682 5686 5691 5695 5699 5705 5707 5708 5710 5711 5713 5713 5715 5717 5713 5711 5713 5714 5716 5719 5720 5720 5722 5722 5721 5721 5721 5723 5725 5726 5728 5729 5729 5731 5731 5730 5733 5731 5726 5731 5737 5734 5733 5735 5734 5736 5739 5738 5738 5738 5737 5737 5737 5738 5739 5740
5592 5596 5599 5601 5604 5608 5608 5607 5611 5613 5614 5620 5622 5623 5628 5633 5635 5639 5644 5648 5650 5653 5654 5656 5660 5663 5666 5668 5669 5670 5673 5673 5674 5681 5686 5687 5692 5697 5697 5698 5701 5702 5705 5707 5709 5709 5705 5704 5707 5707 5708 5711 5712 5711 5712 5713 5713 5715 5718 5720 5721 5723 5724 5722 5723 5723 5722 5725 5727 5722 5718 5725 5732 5730 5729 5729 5728 5731 5734 5733 5733 5733 5733 5733 5733 5734 5735 5735
5582 5584 5588 5592 5595 5597 5598 5601 5605 5607 5610 5613 5614 5617 5622 5625 5629 5635 5638 5640 5642 5645 5647 5650 5654 5657 5657 5659 5661 5663 5665 5667 5670 5674 5677 5679 5684 5688 5688 5689 5691 5694 5697 5699 5700 5699 5696 5697 5699 5698 5698 5701 5702 5704 5707 5710 5711 5712 5714 5714 5714 5715 5715 5714 5716 5715 5714 5718 5718 5713 5714 5723 5726 5725 5725 5724 5723 5724 5727 5728 5728 5728 5728 5728 5728 5728 5729 5730
5572 5574 5579 5583 5586 5588 5591 5595 5597 5598 5602 5606 5607 5610 5613 5617 5624 5629 5629 5629 5634 5638 5641 5644 5648 5649 5649 5651 5654 5655 5658 5662 5664 5665 5667 5672 5677 5680 5681 5681 5683 5687 5689 5689 5690 5689 5687 5687 5690 5690 5690 5693 5698 5701 5703 5704 5704 5704 5707 5707 5707 5708 5708 5707 5706 5705 5709 5711 5709 5709 5715 5718 5719 5719 5719 5719 5719 5718 5720 5722 5722 5722 5722 5722 5723 5723 5724 5725
5563 5566 5572 5577 5578 5579 5583 5587 5589 5590 5595 5599 5599 5602 5606 5611 5618 5619 5618 5623 5630 5632 5634 5636 5639 5640 5641 5645 5648 5649 5653 5656 5655 5656 5660 5666 5670 5672 5672 5673 5676 5678 5679 5680 5680 5680 5678 5678 5682 5684 5684 5689 5694 5695 5695 5695 5695 5697 5700 5699 5700 5701 5700 5698 5697 5701 5706 5702 5700 5709 5713 5709 5711 5714 5713 5713 5713 5712 5714 5715 5716 5716 5716 5717 5718 5719 5719 5720
5555 5560 5566 5569 5569 5571 5575 5580 5584 5586 5589 5591 5591 5594 5599 5604 5608 5610 5614 5621 5624 5623 5624 5626 5630 5633 5637 5641 5642 5643 5646 5648 5647 5650 5655 5660 5663 5663 5664 5665 5668 5670 5672 5671 5671 5672 5670 5670 5676 5679 5677 5682 5687 5686 5686 5688 5689 5690 5691 5692 5694 5694 5692 5691 5692 5698 5698 5692 5695 5706 5704 5700 5706 5709 5707 5706 5706 5707 5710 5710 5709 5710 5710 5710 5711 5712 5713 5714
5548 5553 5558 5559 5560 5565 5569 5573 5576 5577 5579 5582 5582 5586 5591 5596 5601 5606 5611 5613 5613 5615 5617 5619 5625 5631 5634 5636 5636 5635 5638 5640 5641 5645 5651 5654 5655 5655 5656 5658 5660 5663 5665 5664 5666 5668 5664 5665 5672 5673 5669 5674 5679 5678 5679 5681 5681 5682 5683 5685 5686 5686 5686 5686 5687 5691 5689 5685 5691 5696 5692 5695 5703 5702 5700 5701 5701 5704 5705 5703 5703 5704 5703 5703 5704 5705 5706 5707
5541 5545 5550 5551 5553 5558 5562 5564 5565 5566 5570 5573 5573 5578 5584 5588 5594 5600 5602 5602 5604 5609 5612 5612 5620 5627 5626 5627 5628 5626 5631 5636 5637 5642 5646 5647 5646 5648 5650 5652 5654 5657 5658 5658 5661 5661 5658 5659 5666 5665 5660 5664 5670 5670 5670 5671 5672 5672 5674 5677 5679 5679 5679 5678 5680 5683 5681 5680 5687 5687 5683 5691 5697 5695 5695 5697 5698 5699 5698 5697 5698 5698 5696 5697 5698 5699 5700 5700
5535 5538 5541 5542 5544 5549 5553 5555 5557 5558 5561 5563 5566 5573 5579 5583 5589 5593 5592 5593 5597 5602 5604 5607 5615 5619 5617 5617 5618 5620 5627 5632 5632 5636 5639 5637 5638 5641 5643 5645 5647 5649 5650 5652 5653 5653 5652 5652 5657 5657 5650 5653 5664 5664 5661 5663 5663 5661 5664 5670 5673 5673 5672 5671 5675 5678 5675 5675 5680 5677 5676 5686 5691 5689 5691 5692 5691 5691 5691 5692 5693 5692 5691 5692 5692 5692 5692 5693
5527 5530 5532 5533 5534 5539 5542 5545 5548 5548 5551 5557 5563 5569 5572 5577 5583 5583 5581 5584 5589 5595 5599 5602 5607 5608 5606 5607 5612 5617 5623 5624 5624 5627 5629 5628 5630 5633 5634 5636 5638 5639 5641 5644 5644 5644 5645 5645 5649 5648 5642 5646 5657 5656 5653 5655 5649 5645 5655 5667 5670 5667 5665 5664 5668 5670 5669 5670 5670 5668 5674 5683 5682 5680 5682 5684 5683 5684 5685 5686 5686 5686 5686 5686 5686 5687 5687 5687